Rio Vista Municipal (O88)
Rio Vista, CA
Field Elevation: 22
Lat: 38°11.60N  Long: 121°42.22W
CTAF/Unicom Freq: 122.7250
   
     For Weather-by-Phone, call (707) 374-5396
Weather Advisories
2020-03-31   22:37 Z
Altimeter 30.10" Hg
Wind 210° @ 14 KT
Gusts 18 KT
Visibility --
Ceiling CLR
Temperature 19° C (66° F)
Dewpoint 11° C (52° F)
Relative Humidity 57%
Density Altitude --
Condensation Altitude 4,200 feet
Wind and Runways
Indicated Runway = 25
Headwind = 11 kt
Crosswind = 9 kt
History
 
 
 
More Info
All DigiWx sites map
NOAA Forecast
 
Airport IQ 5010
(DUC) Stack Farm
(CA37) Dominican
 
about DigiWx
 
FAA Disclaimer: The data displayed is for advisory purposes only and is not to be used for flight planning or operations. For official data, please call (707) 374-5396 to hear the current automated AWOS voice message.
  METAR O88 312237Z AUTO 21014G18KT CLR 19/11 A3010